CZ-6A DEB, 61469

Orbit data source: Space-Track

CZ-6A DEB, 61469 is space debris in LEO originally from a launch on Tue, 06 Aug 2024 UTC launched from the Taiyaun Space Center, China (TSC). Debris objects in space refer to the collection of defunct objects orbiting the Earth. Examples of debris include non-operational satellites, rocket bodies, and fragments generated from explosions, collisions, or faulty payload assembly.

Loading next visibility...
Identifier
61469, 2024-140AAB
Orbit
LEO
Country
Flag of CNCN / PRC
Related business
Manufacturer
SAST
Mission
Spacecraft
Bus & Motor
Unknown
Mass
Unknown
Launch date (UTC)
2024-08-06 (1 year ago)
Launch vehicle
Unknown
Launch site
Taiyaun Space Center, China (TSC)
Object type
Payload
Rocket body
Debris
Shape & HBR
Unknown
Radar Cross Section
Small (<0.1 m²)

Expand to show TLE details & history
Last TLE update: 1 day ago

TLE from 1 day ago
0 CZ-6A DEB
1 61469U 24140AAB 25260.71596112  .00006647  00000-0  91647-3 0  9997
2 61469  90.0476 354.6743 0135923  39.7417 321.3663 14.71853643 57480
Epoch: 2025-09-17T17:10Z
TLE epoch observation values (Epoch: 2025-09-17T17:10:59.04Z)
Latitude
-0.00009°
Longitude
100.04038°
Altitude
584.107 km
Speed
7.608 km/s
True Right ascension
23h 38m 41s
True Declination
0° 00' 00"
Sunlit
Object was in full shadow at epoch
Visualization orbit readout
Latitude
Unknown
Longitude
Unknown
Altitude
Unknown
Speed
Unknown
Apparent Right ascension
Unknown
Apparent Declination
Unknown
Sunlit
N/A
Visualization observer readout
Local Sidereal Time
13:02:41
Azimuth
Unknown
Elevation
Unknown
Doppler factor
Unknown
Orbital elements
Apogee altitude
747.586 km
Perigee altitude
556.474 km
Semi-major axis
7,030.167 km
Eccentricity
0.01359
Inclination
90.0476°
RAAN
354.6743°
Arg. of periapsis
39.7417°
True anomaly
320.38083°
Mean anomaly
321.3663°
Eccentric anomaly
320.87488°
Mean motion
3.68209 °/min
Orbital period
97.77 mins
BSTAR
0.00091647
Loading maneuver chart data...
Computing Atmospheric mass density...
Loading historical data...
Loading historical data...
Loading historical data...
Loading historical data...
Loading historical data...
Loading historical data...
Loading historical data...

Documentation

Showing up to 5 results
|